CW9825 Weather Reports


time (UTC)temp
C
wind
direction
speed
KPH
gust
KPH
rain 1hr
cm
rain 24hr
cm
rain mn
cm
humidity
%
barometer
mb
20260831061049 22 196 4.8 16.1 0.61 0.71 0.71 94 1006.3
20260831060549 22 167 4.8 17.7 0.71 0.71 0.71 94 1006.2
20260831060100 22 205 1.6 11.3 0.71 0.71 0.71 94 1006.2
20260831055549 22 167 3.2 12.9 0.71 0.71 0.71 94 1006.3
20260831055048 22 173 1.6 12.9 0.71 0.71 0.71 94 1006.4
20260831054548 22 144 4.8 12.9 0.71 0.71 0.71 94 1006.3
20260831054048 22 185 3.2 24.1 0.71 0.71 0.71 94 1006.3
20260831053547 22 211 12.9 24.1 0.71 0.71 0.71 94 1005.9
20260831053055 22 134 4.8 11.3 0.71 0.71 0.71 93 1006.1
20260831052545 22 216 1.6 14.5 0.71 0.71 0.71 92 1006.4
20260831052042 22 329 6.4 14.5 0.33 0.33 0.33 92 1006.5
20260831051544 22 66 6.4 12.9 0.13 0.13 0.13 91 1004.8
20260831051040 23 133 3.2 9.7 0.10 0.10 0.10 90 1005.2
20260831050540 23 148 3.2 11.3 0.00 0.00 0.00 90 1005.5
20260831050057 23 157 4.8 11.3 0.00 0.00 0.00 89 1005.2
20260831045537 23 159 4.8 11.3 0.00 0.00 0.00 89 1005.5
20260831045038 23 155 0.0 8.0 0.00 0.00 0.00 89 1005.7
20260831044537 23 155 3.2 11.3 0.00 0.00 0.00 89 1005.6
20260831044037 23 141 3.2 11.3 0.00 0.00 0.00 89 1005.5
20260831043538 23 173 1.6 11.3 0.00 0.00 0.00 89 1005.6
20260831043043 23 121 6.4 11.3 0.00 0.00 0.00 89 1005.5
20260831042537 23 161 3.2 8.0 0.00 0.00 0.00 89 1005.6
20260831042037 23 153 3.2 11.3 0.00 0.00 0.00 89 1005.4
20260831041551 23 124 1.6 12.9 0.00 0.00 0.00 89 1005.3
20260831041037 23 158 4.8 12.9 0.00 0.00 0.00 89 1005.2
20260831040536 23 153 3.2 11.3 0.00 0.00 0.00 89 1005.1
20260831040036 23 129 3.2 12.9 0.00 0.00 0.00 89 1005.1
20260831035539 23 137 4.8 12.9 0.00 0.00 0.00 89 1005.1
20260831035035 23 135 4.8 12.9 0.00 0.00 0.00 88 1005.1
20260831034539 23 174 4.8 12.9 0.00 0.00 0.00 88 1005.3
20260831034035 23 144 1.6 11.3 0.00 0.00 0.00 88 1005.5
20260831033539 23 157 4.8 11.3 0.00 0.00 0.00 88 1005.6
20260831033036 23 163 3.2 12.9 0.00 0.00 0.00 87 1005.8
20260831032534 23 148 3.2 12.9 0.00 0.00 0.00 87 1005.8
20260831032037 23 152 6.4 14.5 0.00 0.00 0.00 87 1005.9
20260831031545 23 153 8.0 16.1 0.00 0.00 0.00 87 1005.9
20260831031033 23 102 8.0 16.1 0.00 0.00 0.00 86 1006.0
20260831030534 24 134 3.2 14.5 0.00 0.00 0.00 86 1006.0
20260831030036 24 159 4.8 12.9 0.00 0.00 0.00 86 1006.1
20260831025534 24 138 4.8 14.5 0.00 0.00 0.00 85 1006.2
20260831025034 24 136 4.8 14.5 0.00 0.00 0.00 85 1006.2
20260831024533 24 142 1.6 12.9 0.00 0.00 0.00 85 1006.4
20260831024032 24 136 6.4 12.9 0.00 0.00 0.00 85 1006.4
20260831023534 24 165 4.8 11.3 0.00 0.00 0.00 84 1006.3
20260831023033 25 144 3.2 12.9 0.00 0.00 0.00 84 1006.3
20260831022532 25 130 0.0 12.9 0.00 0.00 0.00 84 1006.4
20260831022032 25 158 3.2 12.9 0.00 0.00 0.00 84 1006.5
20260831021533 25 148 4.8 12.9 0.00 0.00 0.00 84 1006.4
20260831021032 25 147 6.4 16.1 0.00 0.00 0.00 84 1006.2
20260831020534 25 155 4.8 16.1 0.00 0.00 0.00 83 1006.2
20260831020034 25 159 6.4 17.7 0.00 0.00 0.00 83 1006.1
20260831015536 25 166 8.0 19.3 0.00 0.00 0.00 83 1006.0
20260831015032 25 157 6.4 19.3 0.00 0.00 0.00 83 1006.0
20260831014537 25 163 9.7 17.7 0.00 0.00 0.00 82 1005.9
20260831014031 25 132 8.0 17.7 0.00 0.00 0.00 82 1005.8
20260831013531 25 177 6.4 17.7 0.00 0.00 0.00 82 1005.6
20260831013040 25 153 9.7 17.7 0.00 0.00 0.00 82 1005.3
20260831012531 25 138 3.2 14.5 0.00 0.00 0.00 82 1005.2
20260831012031 25 144 3.2 14.5 0.00 0.00 0.00 82 1005.1
20260831011531 25 130 4.8 12.9 0.00 0.00 0.00 81 1005.1
20260831011029 25 156 3.2 16.1 0.00 0.00 0.00 81 1005.2
20260831010530 25 148 6.4 16.1 0.00 0.00 0.00 81 1005.1
20260831010030 25 129 3.2 17.7 0.00 0.00 0.00 81 1005.0
20260831005530 25 70 8.0 17.7 0.00 0.00 0.00 80 1005.0
20260831005030 26 355 4.8 16.1 0.00 0.00 0.00 80 1004.9
20260831004529 26 138 4.8 20.9 0.00 0.00 0.00 80 1004.9
20260831004030 26 121 8.0 20.9 0.00 0.00 0.00 79 1005.0
20260831003531 26 43 6.4 17.7 0.00 0.00 0.00 78 1005.0
20260831003028 26 49 8.0 22.5 0.00 0.00 0.00 78 1005.0
20260831002527 26 118 11.3 22.5 0.00 0.00 0.00 78 1005.0
20260831002030 26 153 9.7 19.3 0.00 0.00 0.00 78 1005.0
20260831001533 26 107 8.0 22.5 0.00 0.00 0.00 78 1005.2
20260831001027 26 151 8.0 19.3 0.00 0.00 0.00 78 1005.2
20260831000526 26 119 9.7 19.3 0.00 0.00 0.00 78 1005.3
20260831000024 26 131 6.4 17.7 0.00 0.00 0.00 78 1005.5
20260830235525 26 335 8.0 17.7 0.00 0.00 0.00 77 1005.6
20260830235028 26 149 8.0 22.5 0.00 0.00 0.00 77 1005.6
20260830234525 26 104 9.7 22.5 0.00 0.00 0.00 77 1005.7
20260830234024 26 83 8.0 22.5 0.00 0.00 0.00 76 1005.7
20260830233527 26 80 6.4 22.5 0.00 0.00 0.00 76 1005.5
20260830233022 27 141 9.7 22.5 0.00 0.00 0.00 75 1005.6
20260830232522 27 24 8.0 22.5 0.00 0.00 0.00 75 1005.7
20260830232025 27 9 9.7 24.1 0.00 0.00 0.00 75 1005.7
20260830231520 27 142 11.3 24.1 0.00 0.00 0.00 75 1005.6
20260830231021 27 145 11.3 22.5 0.00 0.00 0.00 76 1005.6
20260830230520 27 89 11.3 22.5 0.00 0.00 0.00 75 1005.7
20260830230020 27 52 9.7 22.5 0.00 0.00 0.00 75 1005.6
20260830225519 26 74 9.7 25.7 0.00 0.00 0.00 76 1005.6
20260830225021 26 45 9.7 25.7 0.00 0.00 0.00 76 1005.7
20260830224519 26 68 8.0 24.1 0.00 0.00 0.00 76 1005.8
20260830224021 26 34 11.3 24.1 0.00 0.00 0.00 76 1005.8
20260830223517 26 78 6.4 17.7 0.00 0.00 0.00 77 1005.9
20260830223023 26 130 6.4 20.9 0.00 0.00 0.00 76 1006.0
20260830222516 26 131 8.0 24.1 0.00 0.00 0.00 76 1006.1
20260830222019 26 71 9.7 24.1 0.00 0.00 0.00 76 1006.2
20260830221518 26 140 11.3 20.9 0.00 0.00 0.00 76 1006.3
20260830221015 26 64 6.4 19.3 0.00 0.00 0.00 76 1006.2
20260830220514 26 92 11.3 17.7 0.00 0.00 0.00 75 1006.4
20260830220014 26 89 8.0 24.1 0.00 0.00 0.00 75 1006.5
20260830215514 27 69 11.3 24.1 0.00 0.00 0.00 75 1006.5
20260830215013 26 103 12.9 24.1 0.00 0.00 0.00 76 1006.4
20260830214517 26 82 14.5 24.1 0.00 0.00 0.00 76 1006.5
20260830214011 26 103 9.7 20.9 0.00 0.00 0.00 75 1006.5
20260830213514 26 107 11.3 25.7 0.00 0.00 0.00 75 1006.6
20260830213010 26 52 11.3 25.7 0.00 0.00 0.00 75 1006.6
20260830212510 26 81 11.3 25.7 0.00 0.00 0.00 75 1006.7
20260830212010 26 82 12.9 25.7 0.00 0.00 0.00 77 1006.8
20260830211511 26 97 11.3 20.9 0.00 0.00 0.00 76 1006.8
20260830211008 26 71 11.3 20.9 0.00 0.00 0.00 76 1006.9
20260830210508 26 56 9.7 24.1 0.00 0.00 0.00 75 1006.9
20260830210008 26 112 8.0 24.1 0.00 0.00 0.00 75 1006.9
20260830205510 26 79 11.3 20.9 0.00 0.00 0.00 75 1007.0
20260830205007 26 53 8.0 22.5 0.00 0.00 0.00 75 1007.1
20260830204507 26 83 11.3 27.4 0.00 0.00 0.00 76 1007.2
20260830204005 26 103 12.9 27.4 0.00 0.00 0.00 75 1007.1
20260830203504 26 100 12.9 25.7 0.00 0.00 0.00 75 1007.1
20260830203013 26 98 11.3 24.1 0.00 0.00 0.00 76 1007.2
20260830202504 26 108 12.9 24.1 0.00 0.00 0.00 76 1007.2
20260830202003 26 105 14.5 22.5 0.00 0.00 0.00 77 1007.2
20260830201502 26 98 12.9 22.5 0.00 0.00 0.00 77 1007.3
20260830201003 26 35 9.7 22.5 0.00 0.00 0.00 76 1007.5
20260830200601 26 57 12.9 22.5 0.00 0.00 0.00 76 1007.6
20260830200113 25 64 9.7 24.1 0.00 0.00 0.00 78 1007.7
20260830195559 25 82 14.5 24.1 0.00 0.00 0.00 78 1007.9
20260830195056 25 91 9.7 19.3 0.00 0.00 0.00 78 1008.1
20260830194630 25 88 9.7 19.3 0.00 0.00 0.00 78 1008.3
20260830194057 25 87 6.4 17.7 0.00 0.00 0.00 78 1008.3
20260830193559 25 59 8.0 16.1 0.00 0.00 0.00 78 1008.4
20260830193056 25 44 6.4 17.7 0.00 0.00 0.00 78 1008.3
20260830192555 25 58 9.7 17.7 0.00 0.00 0.00 76 1008.4
20260830192054 25 132 6.4 16.1 0.00 0.00 0.00 77 1008.5
20260830191600 25 83 6.4 16.1 0.00 0.00 0.00 78 1008.5
20260830191057 25 157 6.4 19.3 0.00 0.00 0.00 78 1008.5
20260830190555 25 88 6.4 19.3 0.00 0.00 0.00 78 1008.6
20260830190056 25 38 8.0 19.3 0.00 0.00 0.00 78 1008.5
20260830185555 25 82 6.4 16.1 0.00 0.00 0.00 77 1008.5
20260830185054 25 161 8.0 25.7 0.00 0.00 0.00 77 1008.4
20260830184555 25 121 9.7 25.7 0.00 0.00 0.00 77 1008.3
20260830184054 25 141 8.0 22.5 0.00 0.00 0.00 78 1008.3
20260830183558 25 131 8.0 17.7 0.00 0.00 0.00 77 1008.3
20260830183100 25 121 4.8 17.7 0.00 0.00 0.00 77 1008.2
20260830182556 25 144 6.4 22.5 0.00 0.00 0.00 76 1008.2
20260830182053 26 92 11.3 29.0 0.00 0.00 0.00 75 1008.3
20260830181553 26 127 17.7 29.0 0.00 0.00 0.00 74 1008.5
20260830181054 26 149 8.0 19.3 0.00 0.00 0.00 74 1008.4
20260830180551 26 107 6.4 19.3 0.00 0.00 0.00 75 1008.5
20260830180049 25 140 4.8 16.1 0.00 0.00 0.00 78 1008.4
20260830175548 25 157 4.8 16.1 0.00 0.00 0.00 77 1008.4
20260830175049 25 46 6.4 17.7 0.00 0.00 0.00 76 1008.4
20260830174554 25 163 8.0 19.3 0.00 0.00 0.00 77 1008.5
20260830174052 25 75 8.0 22.5 0.00 0.00 0.00 77 1008.5
20260830173548 25 82 8.0 20.9 0.00 0.00 0.00 76 1008.7
20260830173103 25 150 9.7 17.7 0.00 0.00 0.00 79 1008.6
20260830172545 24 120 6.4 17.7 0.00 0.00 0.00 79 1008.5
20260830172045 24 89 8.0 25.7 0.00 0.00 0.00 79 1008.5
20260830171549 24 37 12.9 25.7 0.00 0.00 0.00 78 1008.5
20260830171045 25 77 9.7 19.3 0.00 0.00 0.00 79 1008.5
20260830170547 24 128 9.7 19.3 0.00 0.00 0.00 81 1008.5
20260830170052 23 105 9.7 19.3 0.00 0.00 0.00 80 1008.5
20260830165544 23 81 8.0 16.1 0.00 0.00 0.00 81 1008.5
20260830165044 23 111 8.0 22.5 0.00 0.00 0.00 81 1008.5
20260830164552 23 166 9.7 22.5 0.00 0.00 0.00 81 1008.4
20260830164044 23 176 6.4 19.3 0.00 0.00 0.00 80 1008.4
20260830163543 23 74 9.7 19.3 0.00 0.00 0.00 80 1008.4
20260830163054 24 30 11.3 20.9 0.00 0.00 0.00 79 1008.4
20260830162542 24 107 8.0 22.5 0.00 0.00 0.00 79 1008.5
20260830162041 25 127 6.4 20.9 0.00 0.00 0.00 79 1008.4
20260830161559 24 71 9.7 19.3 0.00 0.00 0.00 80 1008.3
20260830161041 24 69 11.3 20.9 0.00 0.00 0.00 80 1008.6
20260830160540 24 97 9.7 22.5 0.00 0.00 0.00 80 1008.6
20260830160040 24 111 8.0 22.5 0.00 0.00 0.00 79 1008.7
20260830155539 24 159 6.4 16.1 0.00 0.00 0.00 81 1008.7
20260830155038 23 60 8.0 19.3 0.00 0.00 0.00 83 1008.6
20260830154536 23 77 9.7 19.3 0.00 0.00 0.00 84 1008.7
20260830154038 23 85 9.7 20.9 0.00 0.00 0.00 83 1008.6
20260830153537 23 78 12.9 20.9 0.00 0.00 0.00 82 1008.6
20260830153045 23 120 9.7 20.9 0.00 0.00 0.00 82 1008.7
20260830152533 23 63 6.4 14.5 0.00 0.00 0.00 84 1008.7
20260830152033 23 109 8.0 20.9 0.00 0.00 0.00 84 1008.7
20260830151534 23 70 8.0 20.9 0.00 0.00 0.00 84 1008.7
20260830151034 23 108 6.4 20.9 0.00 0.00 0.00 83 1008.7
20260830150532 23 70 11.3 20.9 0.00 0.00 0.00 84 1008.8
20260830150032 23 111 9.7 19.3 0.00 0.00 0.00 84 1008.9
20260830145530 23 67 9.7 20.9 0.00 0.03 0.00 85 1009.1
20260830145034 23 87 8.0 20.9 0.00 0.03 0.00 85 1009.2
20260830144529 22 91 4.8 16.1 0.00 0.03 0.00 85 1009.1
20260830144028 22 62 9.7 16.1 0.00 0.03 0.00 85 1009.2
20260830143527 22 56 4.8 16.1 0.00 0.03 0.00 86 1009.3
20260830143025 22 106 4.8 16.1 0.00 0.03 0.00 87 1009.3
20260830142523 22 86 9.7 16.1 0.00 0.03 0.00 88 1009.3
20260830142023 21 66 6.4 14.5 0.00 0.03 0.00 89 1009.3
20260830141522 21 86 3.2 14.5 0.00 0.03 0.00 89 1009.2
20260830141020 21 55 8.0 14.5 0.00 0.03 0.00 89 1009.4
20260830140521 21 81 4.8 11.3 0.00 0.03 0.00 90 1009.4
20260830140020 21 67 4.8 12.9 0.00 0.03 0.00 90 1009.5
20260830135519 21 80 3.2 8.0 0.00 0.03 0.00 90 1009.5
20260830135016 21 25 3.2 8.0 0.00 0.03 0.00 90 1009.6
20260830134517 21 82 3.2 6.4 0.00 0.03 0.00 90 1009.7
20260830134015 21 79 1.6 6.4 0.00 0.03 0.00 91 1009.8
20260830133517 21 73 0.0 4.8 0.00 0.03 0.00 91 1009.7
20260830133015 21 75 1.6 8.0 0.00 0.03 0.00 91 1009.9
20260830132511 20 59 1.6 8.0 0.00 0.03 0.00 91 1009.7
20260830132014 20 65 1.6 6.4 0.00 0.03 0.00 91 1009.7
20260830131514 20 105 1.6 4.8 0.00 0.03 0.00 91 1009.6
20260830131011 20 105 1.6 6.4 0.00 0.03 0.00 91 1009.7
20260830130512 20 111 1.6 8.0 0.00 0.03 0.00 91 1009.6
20260830130010 20 86 1.6 8.0 0.00 0.03 0.00 91 1009.5
20260830125510 20 76 3.2 9.7 0.00 0.03 0.00 91 1009.2
20260830125010 20 54 3.2 9.7 0.00 0.03 0.00 91 1009.2
20260830124509 20 78 3.2 9.7 0.00 0.03 0.00 91 1009.3
20260830124008 20 101 1.6 9.7 0.00 0.03 0.00 91 1009.5
20260830123508 20 102 3.2 6.4 0.00 0.03 0.00 91 1009.4
20260830123007 20 83 3.2 9.7 0.00 0.03 0.00 91 1009.2
20260830122507 20 101 4.8 9.7 0.00 0.03 0.00 91 1009.1
20260830122006 20 86 3.2 9.7 0.00 0.03 0.00 91 1009.2
20260830121506 20 78 3.2 9.7 0.00 0.03 0.00 91 1009.2
20260830121005 20 65 1.6 8.0 0.00 0.03 0.00 91 1009.2
20260830120504 20 49 3.2 8.0 0.00 0.03 0.00 91 1009.1
20260830120005 20 61 4.8 8.0 0.00 0.03 0.00 91 1009.2
20260830115504 20 72 1.6 6.4 0.00 0.03 0.00 91 1009.2
20260830115004 20 89 1.6 8.0 0.00 0.03 0.00 91 1009.1
20260830114504 20 101 3.2 8.0 0.00 0.03 0.00 91 1009.0
20260830114006 20 50 1.6 8.0 0.00 0.03 0.00 92 1008.9
20260830113503 20 60 3.2 8.0 0.00 0.03 0.00 92 1008.8
20260830113003 20 16 3.2 9.7 0.00 0.03 0.00 92 1008.8
20260830112503 20 96 1.6 8.0 0.00 0.03 0.00 92 1008.8
20260830112004 20 74 1.6 8.0 0.00 0.03 0.00 92 1008.7
20260830111503 20 61 4.8 8.0 0.00 0.03 0.00 92 1008.5
20260830111003 20 70 1.6 9.7 0.00 0.03 0.00 92 1008.6
20260830110504 20 57 4.8 9.7 0.00 0.03 0.00 92 1008.5
20260830110003 20 61 3.2 9.7 0.00 0.03 0.00 92 1008.4
20260830105502 20 34 4.8 9.7 0.00 0.03 0.00 92 1008.5
20260830105002 20 62 1.6 8.0 0.00 0.03 0.00 93 1008.7
20260830104502 20 53 1.6 8.0 0.00 0.03 0.00 92 1008.7
20260830104003 20 78 3.2 6.4 0.00 0.03 0.00 92 1008.4
20260830103501 20 57 1.6 6.4 0.00 0.03 0.00 92 1008.5
20260830103001 20 59 1.6 8.0 0.00 0.03 0.00 92 1008.5
20260830102603 20 83 3.2 8.0 0.00 0.03 0.00 92 1008.5
20260830102059 20 87 1.6 9.7 0.00 0.03 0.00 92 1008.5
20260830101559 20 70 3.2 9.7 0.00 0.03 0.00 92 1008.6
20260830101058 20 108 3.2 11.3 0.00 0.03 0.00 93 1008.9
20260830100558 20 81 3.2 11.3 0.00 0.03 0.00 93 1008.9
20260830100104 20 96 3.2 11.3 0.00 0.03 0.00 93 1009.0
20260830095558 20 109 1.6 11.3 0.00 0.03 0.00 93 1009.0
20260830095058 20 98 3.2 11.3 0.00 0.03 0.00 93 1009.1
20260830094601 20 102 1.6 8.0 0.00 0.03 0.00 93 1009.1
20260830094057 20 57 1.6 8.0 0.00 0.03 0.00 93 1009.1
20260830093542 20 80 1.6 6.4 0.00 0.03 0.00 93 1009.2
20260830093127 20 44 1.6 4.8 0.00 0.03 0.00 93 1009.3
20260830092051 20 84 1.6 6.4 0.00 0.03 0.00 93 1009.5
20260830091552 20 90 1.6 6.4 0.00 0.03 0.00 93 1009.5
20260830091050 20 90 3.2 6.4 0.00 0.03 0.00 93 1009.4
20260830090549 20 95 3.2 6.4 0.00 0.03 0.00 93 1009.6
20260830090049 20 94 1.6 4.8 0.00 0.03 0.00 93 1009.7
20260830085548 20 94 0.0 4.8 0.00 0.25 0.00 93 1009.6
20260830085048 20 96 0.0 4.8 0.00 0.25 0.00 93 1009.7
20260830084548 20 96 1.6 4.8 0.00 0.25 0.00 93 1009.6
20260830084048 20 97 1.6 4.8 0.00 0.25 0.00 93 1009.6
20260830083548 20 99 1.6 4.8 0.00 0.25 0.00 93 1009.5
20260830083054 20 64 0.0 6.4 0.00 0.25 0.00 93 1009.5
20260830082547 20 64 1.6 6.4 0.00 0.25 0.00 93 1009.4
20260830082046 20 69 1.6 4.8 0.00 0.25 0.00 93 1009.2
20260830081548 20 59 0.0 6.4 0.00 0.25 0.00 93 1009.2
20260830081046 20 60 1.6 6.4 0.00 0.25 0.00 93 1009.2
20260830080546 20 80 0.0 4.8 0.00 0.25 0.00 93 1009.1
20260830080055 20 80 1.6 6.4 0.00 0.25 0.00 93 1009.0
20260830075546 20 52 0.0 6.4 0.00 0.25 0.00 92 1009.0
20260830075045 20 37 1.6 4.8 0.00 0.25 0.00 92 1009.1
20260830074559 20 36 0.0 6.4 0.00 0.25 0.00 92 1009.0
20260830074047 20 83 0.0 8.0 0.00 0.25 0.00 92 1009.0
20260830073544 20 90 3.2 8.0 0.00 0.25 0.00 92 1008.9
20260830073043 20 55 3.2 8.0 0.00 0.25 0.00 92 1008.9
20260830072542 20 38 3.2 8.0 0.00 0.25 0.00 92 1009.1
20260830072042 20 43 1.6 6.4 0.00 0.25 0.00 92 1009.1
20260830071541 20 114 1.6 6.4 0.00 0.25 0.00 92 1009.1
20260830071040 20 62 3.2 6.4 0.00 0.25 0.00 92 1009.2
20260830070539 20 82 3.2 6.4 0.00 0.25 0.00 92 1009.4
20260830070040 20 89 3.2 6.4 0.00 0.25 0.00 91 1009.6
20260830065537 20 76 3.2 8.0 0.00 0.25 0.00 91 1009.6
20260830065037 20 99 4.8 8.0 0.00 0.25 0.00 91 1009.7
20260830064538 20 82 3.2 8.0 0.00 0.25 0.00 91 1009.8
20260830064036 20 103 3.2 9.7 0.00 0.25 0.00 91 1009.8
20260830063537 20 109 3.2 9.7 0.00 0.25 0.00 91 1009.8
20260830063035 21 90 4.8 9.7 0.00 0.25 0.00 91 1009.9
20260830062534 21 89 3.2 6.4 0.00 0.25 0.00 91 1009.8
20260830062033 21 69 1.6 9.7 0.00 0.25 0.00 90 1010.0
20260830061535 21 74 1.6 9.7 0.00 0.25 0.00 90 1009.9